Weather History for Haleyville, AL

Change the Weather History Date:

Sunday, October 7, 2012

  Actual Average (KJFX) Record (KJFX)
Temperature  
Mean Temperature 52 °F -  
Max Temperature 59 °F 75 °F 89 °F (1981)
Min Temperature 44 °F 48 °F 33 °F (1978)
Degree Days  
Heating Degree Days 14    
Growing Degree Days 2 (Base 50)    
Moisture  
Dew Point 42 °F    
Average Humidity 80    
Maximum Humidity 93    
Minimum Humidity 47    
Precipitation  
Precipitation 0.00 in - - ()
Sea Level Pressure  
Sea Level Pressure 30.19 in    
Wind  
Wind Speed 7 mph (North)    
Max Wind Speed 12 mph    
Max Gust Speed 16 mph    
Visibility 10 miles    
Events      
Averages and records for this station are not official NWS values.
T = Trace of Precipitation, MM = Missing Value Source: NWS Daily Summary

Daily Weather History Graph

Daily Weather History Graph

Search for Another Location

Airport:

Trip Planner

Search our weather history database for the weather conditions in past years. The results will help you decide how hot, cold, wet, or windy it might be!

Date:

Astronomy

Oct. 07, 2012 Rise Set
Actual Time 6:49 AM CDT 6:25 PM CDT
Civil Twilight 6:24 AM CDT 6:50 PM CDT
Nautical Twilight 5:55 AM CDT 7:19 PM CDT
Astronomical Twilight 5:26 AM CDT 7:48 PM CDT
Moon 11:47 PM CDT (10/7) 1:16 PM CDT (10/7)
Length of Visible Light 12h 26m
Length of Day
11h 35m
Waning Gibbous, 56% of the Moon is Illuminated
Oct 7
Waning Gibbous
Oct 8
Last Quarter
Oct 15
New
Oct 21
First Quarter
Oct 29
Full

Hourly Weather History & Observations

Time (CDT) Temp. Windchill Dew Point Humidity Pressure Visibility Wind Dir Wind Speed Gust Speed Precip Events Conditions
12:56 AM 46.9 °F - 41.9 °F 83% 30.14 in 10.0 mi NNE 8.1 mph - N/A   Scattered Clouds
1:56 AM 45.0 °F 39.7 °F 43.0 °F 93% 30.16 in 10.0 mi North 10.4 mph - N/A   Mostly Cloudy
2:16 AM 44.6 °F 40.2 °F 42.8 °F 93% 30.13 in 10.0 mi North 8.1 mph - N/A   Overcast
2:56 AM 45.0 °F 40.1 °F 43.0 °F 93% 30.18 in 10.0 mi North 9.2 mph - N/A   Overcast
3:56 AM 45.0 °F 42.6 °F 41.9 °F 89% 30.16 in 10.0 mi North 4.6 mph - N/A   Mostly Cloudy
4:56 AM 45.0 °F - 41.9 °F 89% 30.15 in 10.0 mi Calm Calm - N/A   Overcast
5:56 AM 45.0 °F 40.6 °F 41.9 °F 89% 30.18 in 10.0 mi North 8.1 mph - 0.00 in   Overcast
6:56 AM 45.0 °F 41.2 °F 41.9 °F 89% 30.19 in 10.0 mi North 6.9 mph - N/A   Mostly Cloudy
7:46 AM 44.6 °F 40.7 °F 42.8 °F 93% 30.17 in 10.0 mi North 6.9 mph - N/A   Overcast
7:56 AM 45.0 °F 39.7 °F 41.9 °F 89% 30.22 in 10.0 mi NNW 10.4 mph - N/A   Overcast
8:24 AM 44.6 °F 39.7 °F 41.0 °F 87% 30.19 in 10.0 mi North 9.2 mph - N/A   Mostly Cloudy
8:56 AM 45.9 °F 41.7 °F 41.0 °F 83% 30.24 in 10.0 mi North 8.1 mph 16.1 mph N/A   Overcast
9:56 AM 46.9 °F - 41.9 °F 83% 30.26 in 10.0 mi North 6.9 mph - N/A   Overcast
10:56 AM 48.9 °F - 41.0 °F 74% 30.27 in 10.0 mi North 11.5 mph - N/A   Overcast
11:56 AM 50.9 °F - 39.9 °F 66% 30.26 in 10.0 mi NNE 8.1 mph - N/A   Overcast
12:56 PM 54.0 °F - 38.8 °F 57% 30.23 in 10.0 mi NNE 8.1 mph - N/A   Scattered Clouds
1:56 PM 55.9 °F - 37.9 °F 51% 30.21 in 10.0 mi North 8.1 mph - N/A   Clear
2:56 PM 59.0 °F - 38.8 °F 47% 30.19 in 10.0 mi Variable 6.9 mph - N/A   Clear
3:56 PM 57.9 °F - 39.9 °F 51% 30.17 in 10.0 mi Variable 5.8 mph - N/A   Clear
4:56 PM 56.8 °F - 39.9 °F 53% 30.17 in 10.0 mi North 5.8 mph - N/A   Clear
5:56 PM 52.9 °F - 43.9 °F 71% 30.18 in 10.0 mi Calm Calm - N/A   Clear
6:56 PM 48.9 °F - 45.9 °F 89% 30.18 in 10.0 mi NNW 3.5 mph - N/A   Clear
7:56 PM 47.8 °F - 45.0 °F 90% 30.19 in 10.0 mi NNW 3.5 mph - N/A   Clear
8:56 PM 46.9 °F - 45.0 °F 93% 30.19 in 10.0 mi North 3.5 mph - N/A   Clear
9:56 PM 45.9 °F - 43.0 °F 90% 30.20 in 10.0 mi Calm Calm - N/A   Clear
10:56 PM 46.9 °F - 43.9 °F 89% 30.22 in 10.0 mi North 3.5 mph - N/A   Scattered Clouds
11:56 PM 46.9 °F - 41.9 °F 83% 30.21 in 10.0 mi North 3.5 mph - N/A   Scattered Clouds